Meath Environmental Platform

Observations for Trim Market St

Time AQI Temp °C Hum % Pres Pa CO μg/m³ H₂S μg/m³ NO μg/m³ NO₂ μg/m³ O₃ μg/m³ SO₂ μg/m³ PM1 μg/m³ PM2.5 μg/m³ PM10 μg/m³
Monday 17 August 2026
04:31 2 18.3 78 2,147,483,647 0.06 0 1.84 3.6 52.75 0 0 1.71 4.07
04:30 2 18.3 78 2,147,483,647 0.05 0 1.84 3.81 54.58 0 0 1.24 3.49
04:29 2 18.4 78 2,147,483,647 0.06 0 1.83 3.42 49.25 0 0 1.71 4.07
04:28 2 18.4 78 2,147,483,647 0.06 0 1.84 3.61 55.4 0 0.71 2.19 4.64
04:27 2 18.4 78 2,147,483,647 0.07 0 1.83 3.77 54.58 0 0 1.24 3.49
04:26 2 18.4 78 2,147,483,647 0.06 0 1.78 3.49 53.14 0 0.71 1.72 4.06
04:25 2 18.4 78 2,147,483,647 0.07 0 1.82 3.56 52.89 0 0.71 2.19 4.64
04:24 2 18.4 78 2,147,483,647 0.07 0 1.83 3.36 51.36 0 0.71 1.72 4.06
04:23 2 18.4 78 2,147,483,647 0.08 0 1.78 3.47 51.75 0 0.71 1.72 4.06
04:22 2 18.4 78 2,147,483,647 0.08 0 1.72 3.05 57.78 0 1.43 2.2 4.64
04:20 2 18.4 78 2,147,483,647 0.08 0 1.76 2.98 53.09 0 1.43 2.67 5.22
04:13 2 18.4 78 2,147,483,647 0.08 0 1.82 3.55 52.34 0 0.71 2.67 5.8
04:11 2 18.4 78 2,147,483,647 0.1 0 1.79 3.63 51.06 0 1.43 1.72 4.06
04:09 2 18.4 78 2,147,483,647 0.1 0 1.83 3.52 48.41 0 0.71 2.66 5.8
04:05 2 18.4 78 2,147,483,647 0.12 0 1.85 3.38 52.39 0 2.14 3.14 7.53
04:04 2 18.4 78 2,147,483,647 0.11 0 1.84 3.28 52.1 0 2.14 3.61 6.38
04:03 2 18.4 78 2,147,483,647 0.12 0 1.86 3.39 50.13 0 2.85 3.61 6.95
04:01 2 18.4 78 2,147,483,647 0.12 0 1.79 3.32 50.77 0 3.56 4.56 7.53
04:00 2 18.4 78 2,147,483,647 0.11 0 1.84 3.39 54.25 0 2.85 5.03 8.11
03:59 2 18.5 78 2,147,483,647 0.12 0 1.8 3.3 49.68 0 2.85 4.56 8.11